CZ-6A DEB

Satellite information

Favourite Embed

Satellite Type and Status

DEBRISIN ORBIT

Key statistics

Satellite CZ-6A DEB at a glance.

Uptime

1078

Days in orbit

Revolutions

≈ 14.7

Per day

Orbit

SSO

Sun Synchronous Orbit

Inclination

98.6

Latest

Satellite identification and parameters

Extended collection of information and parameters for CZ-6A DEB.

Object identification

Identified? True

Debris? True

Object name: CZ-6A DEB

International designator: 2022-151AGD

Object number (NORAD): 56653

Object ID (CCSDS): 56653

Country: PEOPLES REPUBLIC OF CHINA (PRC)

Current information (Y/N): Y

RCS size: SMALL

Orbital parameters

Period: 98.028 minutes

Inclination: 98.6231 deg

SMA: 7042.495 km

Apoapsis: 743.609 km

Periapsis: 585.111 km

RAAN: 3.4571 deg

Eccentricy: 0.01125296

Argument of periapsis: 215.0354 deg

Mean anomaly: 144.3412 deg

Mean motion: 14.6897 rev/day

Mean motion (dot): 0.00010826 rev/day2

B* drag term: 0.00168483 1/REarth

Two-line elements (TLE)

Creation date: Oct. 23, 2025, 2:46 a.m.

Reference frame: TEME

Reference center: EARTH

Epoch: Oct. 22, 2025, 9:46 a.m. UTC

TLE line 0: 0 CZ-6A DEB

TLE line 1: 1 56653U 22151AGD 25295.40714290 .00010826 00000-0 16848-2 0 9992

TLE line 2: 2 56653 98.6231 3.4571 0112530 215.0354 144.3412 14.68970000133223

Live tracking on map

Real-time ground track for satellite CZ-6A DEB.

In-orbit conjunctions

A list of the most updated potential collisions computed for object CZ-6A DEB.

Target Orbit TCA Probability of collision Miss distance Type
FENGYUN 1C DEB SSO 2025-07-02 00:40:58 0.0001478279 48.0 (m) DEBRIS

Associated space launch

Chinese satellite reported for atmospheric/ocean/environmental/spatial parameter research purposes, details TBD.

CZ-6A DEB was lifted into orbit during the mission ‘Long March 6A | Yunhai 3’, on board a Long March 6A space rocket.

The launch took place on Nov. 11, 2022, 10:52 p.m. from Launch Complex 9A.

For more information about the launch, click the button.

Launch to space Long March 6A | Yunhai 3
Long March 6A | Yunhai 3

Agency: N/A

Status: Launch Successful

Launch date: Nov. 11, 2022, 10:52 p.m. UTC

Rocket: Long March 6A

Launch pad: Launch Complex 9A

Location: Taiyuan Satellite Launch Center, People's Republic of China

...

Latest news about this satellite

There are no fresh news available about this satellite. Check back as we update our databases every day.


Newsletter sign-up

Weekly statistics, charts and insights to help you stay on top of the space industry.